[[{"header":{"parameterUnit":"m.s-1","parameterCategory":1,"la1":30.2991,"la2":30.254,"lo1":-89.0895,"lo2":-89.0444,"dx":0.0017,"dy":0.0017,"nx":28,"ny":28,"refTime":"2022-11-13T15:00:00:Z","depth":0,"parameterNumber":2,"parameterNumberName":"U-component_of_WINDS"},"data":[0,0,0,0,0,0,0,0,0,0,0,0,0,0,0,0,0,0,0,0,0,0,0,0,0,0,0,0,0,0,0,0,0,0,0,0,0,0,0,0,0,0,0,0,0,0,0,0,0,0,0,0,0,0,0,0,0,0,-0.0564,-0.0565,0,-0.0597,-0.0597,-0.0598,-0.0603,-0.0603,-0.0603,-0.0602,-0.0636,-0.0638,-0.0639,0,0,0,0,0,0,0,0,0,0,0,0,0,-0.0506,-0.0507,-0.0564,-0.0565,-0.0565,-0.0597,-0.0597,-0.0598,-0.0603,-0.0603,-0.0603,-0.0602,-0.0636,-0.0637,-0.0639,0,0,0,0,0,0,0,0,0,0,0,0,0,-0.0534,-0.0507,-0.0564,-0.0572,-0.0573,-0.0597,-0.0597,-0.0598,-0.0603,-0.0603,-0.0602,-0.0602,-0.0636,-0.0637,-0.0639,-0.0658,0,0,-0.0644,-0.0645,0,0,0,0,0,0,0,0,-0.0533,-0.0536,-0.057,-0.0571,-0.0572,-0.0596,-0.0589,-0.0618,-0.0603,-0.0592,-0.0602,-0.0602,-0.0623,-0.0626,-0.0633,-0.066,-0.0661,-0.0645,-0.0646,-0.0646,-0.0647,0,0,0,0,0,0,0,-0.0531,-0.0535,-0.0577,-0.0571,-0.0572,-0.0573,-0.0577,-0.0595,-0.0609,-0.0593,-0.0593,-0.0597,-0.0624,-0.0631,-0.0634,-0.0662,-0.0644,-0.0646,-0.0647,-0.0648,-0.0705,-0.0706,0,0,0,0,0,0,-0.0527,-0.0533,-0.0576,-0.0578,-0.0551,-0.0574,-0.0578,-0.0588,-0.0609,-0.0612,-0.0597,-0.0597,-0.0629,-0.0632,-0.0635,-0.0659,-0.0646,-0.0648,-0.0649,-0.0705,-0.0706,-0.0706,0,0,0,0,0,0,-0.0526,-0.0531,-0.0575,-0.0556,-0.0562,-0.0576,-0.0587,-0.0589,-0.0597,-0.0613,-0.0615,-0.0602,-0.0628,-0.0633,-0.0652,-0.066,-0.0649,-0.065,-0.0704,-0.0705,-0.0706,-0.0707,0,0,0,0,0,0,-0.0524,-0.0531,-0.0538,-0.0556,-0.0563,-0.0592,-0.0588,-0.059,-0.06,-0.06,-0.0618,-0.0621,-0.0628,-0.065,-0.0654,-0.0662,-0.0652,-0.0704,-0.0705,-0.0706,-0.0706,-0.0707,-0.0708,0,0,0,0,0,-0.0522,-0.0538,-0.0539,-0.0544,-0.0572,-0.0592,-0.0596,-0.0604,-0.0601,-0.0608,-0.0618,-0.062,-0.0658,-0.0652,-0.0657,-0.0666,-0.0703,-0.0704,-0.0706,-0.0706,-0.0707,-0.0708,0,0,0,0,0,0,-0.0521,-0.054,-0.0542,-0.0563,-0.0576,-0.0593,-0.0603,-0.0606,-0.062,-0.0619,-0.0629,-0.0633,-0.0652,-0.0661,-0.0653,-0.0685,-0.0681,-0.0683,-0.0679,-0.068,-0.0682,-0.068,-0.0653,0,0,0,0,0,-0.0523,-0.0538,-0.0553,-0.0571,-0.0577,-0.0589,-0.0598,-0.0603,-0.0617,-0.0622,-0.0634,-0.0647,-0.0662,-0.0671,-0.0686,-0.0707,-0.0711,-0.0715,-0.0716,-0.0717,-0.0719,-0.073,-0.0733,-0.071,-0.071,-0.071,0,0,-0.0528,-0.054,-0.0549,-0.0571,-0.0581,-0.0596,-0.0594,-0.0609,-0.062,-0.0625,-0.0644,-0.0652,-0.0668,-0.0688,-0.0697,-0.0696,-0.0726,-0.0719,-0.0719,-0.0721,-0.0732,-0.0734,-0.0736,-0.071,-0.071,-0.071,0,0,-0.0545,-0.0555,-0.0571,-0.0581,-0.0596,-0.0604,-0.0607,-0.0624,-0.063,-0.0649,-0.0652,-0.0665,-0.0691,-0.0702,-0.071,-0.0729,-0.0731,-0.0733,-0.074,-0.0751,-0.0752,-0.0754,-0.0761,-0.0763,-0.0735,-0.0735,-0.0735,0,-0.0549,-0.0571,-0.0578,-0.0594,-0.0603,-0.0607,-0.0622,-0.0632,-0.0652,-0.0658,-0.0656,-0.0687,-0.0698,-0.072,-0.0724,-0.0731,-0.0736,-0.0732,-0.0751,-0.0753,-0.0755,-0.0761,-0.0764,-0.0735,-0.0735,-0.0735,-0.0735,0,-0.0575,-0.059,-0.0601,-0.0619,-0.063,-0.0645,-0.0654,-0.0664,-0.0668,-0.0675,-0.0694,-0.0707,-0.0724,-0.0729,-0.0733,-0.0752,-0.075,-0.0749,-0.0746,-0.0757,-0.0763,-0.0766,-0.0735,-0.0735,-0.0735,-0.0735,0,0,-0.0593,-0.0614,-0.0618,-0.0626,-0.0643,-0.0655,-0.067,-0.0686,-0.0694,-0.0707,-0.072,-0.074,-0.0739,-0.0749,-0.0754,-0.0763,-0.0777,-0.0761,-0.0762,-0.0764,-0.0798,-0.0799,-0.0802,-0.0778,-0.0778,-0.0779,-0.0797,0,-0.0612,-0.0639,-0.0645,-0.0669,-0.0682,-0.0685,-0.0698,-0.071,-0.0717,-0.073,-0.0737,-0.0752,-0.0749,-0.0755,-0.0764,-0.0773,-0.0784,-0.0772,-0.079,-0.0791,-0.0787,-0.0805,-0.0806,-0.0823,-0.0799,-0.08,-0.08,0,-0.0638,-0.065,-0.0675,-0.0689,-0.0695,-0.0707,-0.0721,-0.0733,-0.0746,-0.0751,-0.0761,-0.0764,-0.078,-0.0774,-0.0795,-0.0787,-0.0794,-0.0799,-0.08,-0.0803,-0.0797,-0.0809,-0.0828,-0.0831,-0.0804,-0.0804,-0.0803,0,-0.0648,-0.0672,-0.0689,-0.0696,-0.0713,-0.0721,-0.0728,-0.0741,-0.075,-0.0762,-0.0768,-0.0782,-0.079,-0.0801,-0.0808,-0.0804,-0.0829,-0.0824,-0.0833,-0.0833,-0.0839,-0.0839,-0.0861,-0.0843,-0.0843,-0.0843,-0.0843,0,-0.0669,-0.0684,-0.0694,-0.0705,-0.0722,-0.0729,-0.0745,-0.0752,-0.0763,-0.0775,-0.0778,-0.0789,-0.0798,-0.081,-0.0815,-0.0832,-0.0835,-0.0839,-0.0841,-0.0839,-0.0839,-0.0845,-0.0844,-0.0843,-0.0843,-0.0843,-0.0843,0,-0.0685,-0.0692,-0.0712,-0.0725,-0.0729,-0.0741,-0.0752,-0.0763,-0.0769,-0.0784,-0.0788,-0.0799,-0.0813,-0.0821,-0.0839,-0.0843,-0.0861,-0.0862,-0.0857,-0.0858,-0.0867,-0.0866,-0.0894,-0.0898,-0.0877,-0.0877,-0.0877,0,-0.0698,-0.0709,-0.0724,-0.0732,-0.0739,-0.0752,-0.0761,-0.0768,-0.0777,-0.0791,-0.08,-0.0814,-0.0827,-0.0849,-0.0858,-0.0872,-0.0873,-0.0882,-0.0875,-0.0873,-0.0874,-0.0873,-0.0874,-0.0883,-0.0884,-0.0884,-0.0884,0,-0.072,-0.0723,-0.0735,-0.0749,-0.0759,-0.077,-0.0781,-0.0788,-0.0796,-0.0806,-0.082,-0.083,-0.0848,-0.0862,-0.0876,-0.0883,-0.0885,-0.0886,-0.0889,-0.0888,-0.0885,-0.0887,-0.0861,-0.0885,-0.0885,-0.0885,-0.0885,-0.0885,-0.0735,-0.0745,-0.0756,-0.077,-0.0779,-0.0789,-0.0799,-0.0806,-0.0818,-0.0834,-0.0836,-0.0852,-0.0863,-0.0882,-0.0889,-0.0901,-0.09,-0.0904,-0.0905,-0.0906,-0.0907,-0.0882,-0.0904,-0.0904,-0.0904,-0.0904,-0.0904,0,-0.0757,-0.0765,-0.0777,-0.0792,-0.0802,-0.0802,-0.0814,-0.0823,-0.0836,-0.0847,-0.0858,-0.0874,-0.0888,-0.0897,-0.0911,-0.0918,-0.0919,-0.0922,-0.0921,-0.0923,-0.0907,-0.0904,-0.092,-0.092,-0.092,-0.092,-0.092,-0.092,-0.0771,-0.0787,-0.0791,-0.0812,-0.0819,-0.0834,-0.0841,-0.085,-0.0858,-0.0876,-0.0887,-0.0893,-0.0902,-0.0916,-0.0929,-0.0931,-0.0936,-0.0938,-0.0941,-0.0926,-0.0924,-0.0923,-0.0919,-0.0939,-0.0939,-0.0956,-0.0956,-0.0956]},{"header":{"parameterUnit":"m.s-1","parameterCategory":1,"la1":30.2991,"la2":30.254,"lo1":-89.0895,"lo2":-89.0444,"dx":0.0017,"dy":0.0017,"nx":28,"ny":28,"refTime":"2022-11-13T15:00:00:Z","depth":0,"parameterNumber":3,"parameterNumberName":"V-component_of_WINDS"},"data":[0,0,0,0,0,0,0,0,0,0,0,0,0,0,0,0,0,0,0,0,0,0,0,0,0,0,0,0,0,0,0,0,0,0,0,0,0,0,0,0,0,0,0,0,0,0,0,0,0,0,0,0,0,0,0,0,0,0,-6.6766,-6.6767,0,-6.6866,-6.6868,-6.6869,-6.6847,-6.6846,-6.6844,-6.6842,-6.6937,-6.6942,-6.6946,0,0,0,0,0,0,0,0,0,0,0,0,0,-6.655,-6.6554,-6.6766,-6.6767,-6.6769,-6.6866,-6.6868,-6.6869,-6.6848,-6.6845,-6.6843,-6.6841,-6.6936,-6.6941,-6.6946,0,0,0,0,0,0,0,0,0,0,0,0,0,-6.6646,-6.6556,-6.6766,-6.677,-6.6771,-6.6866,-6.6868,-6.6869,-6.6848,-6.6845,-6.6843,-6.684,-6.6934,-6.6941,-6.6947,-6.7042,0,0,-6.6966,-6.6969,0,0,0,0,0,0,0,0,-6.6641,-6.6654,-6.6768,-6.677,-6.6772,-6.6842,-6.6826,-6.6927,-6.6849,-6.6819,-6.6842,-6.6839,-6.6907,-6.6916,-6.694,-6.7046,-6.705,-6.6967,-6.6971,-6.6974,-6.6975,0,0,0,0,0,0,0,-6.6634,-6.665,-6.6805,-6.677,-6.6772,-6.6765,-6.6775,-6.6845,-6.6877,-6.6821,-6.682,-6.6832,-6.6908,-6.6934,-6.6942,-6.7051,-6.6967,-6.6972,-6.6976,-6.6979,-6.7241,-6.7244,0,0,0,0,0,0,-6.6627,-6.6644,-6.6802,-6.6808,-6.6698,-6.6771,-6.6783,-6.6822,-6.6876,-6.6882,-6.6835,-6.6831,-6.6925,-6.6935,-6.6946,-6.7061,-6.6974,-6.698,-6.6983,-6.7238,-6.7242,-6.7245,0,0,0,0,0,0,-6.6622,-6.6641,-6.6798,-6.6726,-6.6746,-6.6778,-6.6822,-6.6825,-6.6852,-6.6887,-6.6891,-6.6857,-6.6923,-6.6937,-6.7019,-6.7064,-6.6982,-6.6988,-6.7234,-6.7239,-6.7243,-6.7293,0,0,0,0,0,0,-6.6616,-6.664,-6.6677,-6.6727,-6.675,-6.6871,-6.6824,-6.6829,-6.6864,-6.686,-6.6908,-6.6914,-6.6922,-6.7009,-6.7025,-6.7072,-6.6993,-6.723,-6.7236,-6.7242,-6.7287,-6.7299,-6.7308,0,0,0,0,0,-6.6609,-6.6685,-6.6679,-6.6698,-6.6798,-6.6874,-6.6887,-6.6897,-6.6868,-6.6905,-6.6928,-6.6912,-6.7057,-6.7018,-6.7035,-6.7085,-6.7227,-6.7235,-6.7242,-6.7282,-6.7296,-6.7308,0,0,0,0,0,0,-6.6636,-6.6692,-6.6686,-6.6781,-6.6824,-6.687,-6.6918,-6.6911,-6.696,-6.6954,-6.6962,-6.6973,-6.7057,-6.7079,-6.7035,-6.718,-6.7138,-6.7149,-6.7163,-6.7176,-6.7187,-6.718,-6.6999,0,0,0,0,0,-6.6654,-6.6714,-6.6758,-6.6838,-6.686,-6.6885,-6.6919,-6.6923,-6.6966,-6.6983,-6.7012,-6.7052,-6.7107,-6.7143,-6.7195,-6.729,-6.73,-6.7333,-6.7343,-6.7352,-6.7361,-6.7414,-6.7429,-6.7268,-6.7268,-6.7268,0,0,-6.669,-6.6728,-6.6764,-6.6844,-6.6878,-6.6938,-6.69,-6.6965,-6.7009,-6.6992,-6.7073,-6.7095,-6.714,-6.723,-6.7271,-6.7251,-6.7408,-6.7361,-6.7367,-6.7372,-6.7423,-6.7438,-6.7452,-6.7273,-6.7272,-6.7271,0,0,-6.6787,-6.6822,-6.6893,-6.6928,-6.6981,-6.6997,-6.7015,-6.7063,-6.7079,-6.716,-6.7149,-6.7201,-6.7294,-6.7328,-6.7357,-6.747,-6.7458,-6.7486,-6.7541,-6.7593,-6.7606,-6.7617,-6.7658,-6.7672,-6.7495,-6.7495,-6.7496,0,-6.6825,-6.6918,-6.693,-6.6997,-6.7032,-6.7023,-6.7095,-6.7127,-6.7193,-6.7216,-6.7193,-6.7313,-6.7343,-6.7441,-6.7469,-6.7492,-6.7512,-6.7481,-6.7603,-6.7615,-6.7625,-6.7664,-6.768,-6.7499,-6.7498,-6.7498,-6.7498,0,-6.6962,-6.7026,-6.7077,-6.7144,-6.7185,-6.7254,-6.7275,-6.7315,-6.7316,-6.7335,-6.7418,-6.7454,-6.7514,-6.7538,-6.7538,-6.7636,-6.7623,-6.7602,-6.7559,-6.7644,-6.7681,-6.7696,-6.7503,-6.7502,-6.7501,-6.75,0,0,-6.7078,-6.7153,-6.7172,-6.7203,-6.7261,-6.731,-6.7378,-6.744,-6.7474,-6.7519,-6.7576,-6.7657,-6.7639,-6.7673,-6.7677,-6.7722,-6.781,-6.7695,-6.7697,-6.7716,-6.7921,-6.7937,-6.7954,-6.7803,-6.7805,-6.7808,-6.7918,0,-6.7181,-6.7305,-6.7319,-6.7428,-6.7488,-6.748,-6.754,-6.7581,-6.7601,-6.7653,-6.7673,-6.7731,-6.7702,-6.7723,-6.7767,-6.779,-6.7851,-6.7782,-6.7855,-6.7857,-6.7844,-6.7974,-6.799,-6.8092,-6.7932,-6.7934,-6.7936,0,-6.7317,-6.7371,-6.7487,-6.7539,-6.7565,-6.7618,-6.7677,-6.7727,-6.7773,-6.7784,-6.7823,-6.7822,-6.7891,-6.7847,-6.7942,-6.7894,-6.7925,-6.7941,-6.7945,-6.7952,-6.7902,-6.7985,-6.8125,-6.8141,-6.7959,-6.7957,-6.7955,0,-6.7392,-6.7492,-6.7576,-6.7602,-6.7664,-6.7702,-6.7729,-6.7773,-6.781,-6.786,-6.7884,-6.7941,-6.7972,-6.8015,-6.8029,-6.7995,-6.8124,-6.808,-6.8134,-6.8134,-6.8161,-6.8159,-6.8309,-6.818,-6.818,-6.818,-6.8179,0,-6.7506,-6.7577,-6.761,-6.7662,-6.7742,-6.7756,-6.7834,-6.7859,-6.7899,-6.7953,-6.7949,-6.8,-6.8015,-6.8068,-6.8079,-6.8157,-6.817,-6.818,-6.8182,-6.8181,-6.818,-6.8201,-6.8195,-6.8184,-6.8183,-6.8182,-6.8181,0,-6.7602,-6.7627,-6.7718,-6.777,-6.7785,-6.7842,-6.7886,-6.7935,-6.7954,-6.8024,-6.8041,-6.8071,-6.8134,-6.8152,-6.8226,-6.8233,-6.8325,-6.832,-6.831,-6.831,-6.8364,-6.8359,-6.8532,-6.8556,-6.8411,-6.8412,-6.8414,0,-6.7673,-6.7729,-6.7789,-6.7827,-6.7857,-6.7917,-6.7956,-6.7972,-6.8012,-6.8071,-6.8112,-6.8175,-6.8226,-6.8326,-6.8353,-6.841,-6.8407,-6.8464,-6.8415,-6.8413,-6.8409,-6.8406,-6.8412,-6.8473,-6.8475,-6.8476,-6.8477,0,-6.7798,-6.7808,-6.7866,-6.7928,-6.7975,-6.8024,-6.8071,-6.8102,-6.8125,-6.817,-6.8236,-6.8276,-6.8354,-6.8416,-6.8474,-6.85,-6.8492,-6.8493,-6.8508,-6.8508,-6.85,-6.8506,-6.8336,-6.8488,-6.8487,-6.8486,-6.8486,-6.8485,-6.7884,-6.7934,-6.7985,-6.8049,-6.8087,-6.8132,-6.8182,-6.8209,-6.8265,-6.8332,-6.8337,-6.8409,-6.8454,-6.8532,-6.8561,-6.8616,-6.8599,-6.8621,-6.8627,-6.8632,-6.8638,-6.8492,-6.8626,-6.8626,-6.8626,-6.8625,-6.8625,0,-6.8009,-6.8042,-6.8102,-6.817,-6.8221,-6.8212,-6.8264,-6.8307,-6.8371,-6.8415,-6.8467,-6.8542,-6.8603,-6.8636,-6.8697,-6.8734,-6.8732,-6.8749,-6.8747,-6.8753,-6.8649,-6.863,-6.875,-6.875,-6.875,-6.875,-6.875,-6.875,-6.808,-6.8165,-6.8182,-6.8285,-6.8316,-6.8389,-6.842,-6.8461,-6.8497,-6.8583,-6.8635,-6.8657,-6.8697,-6.876,-6.8815,-6.8823,-6.8846,-6.8865,-6.8871,-6.8773,-6.876,-6.8748,-6.873,-6.887,-6.887,-6.8971,-6.8972,-6.8972]}]]